Time,TemperatureF,DewpointF,PressureIn,WindDirection,WindDirectionDegrees,WindSpeedMPH,WindSpeedGustMPH,Humidity,HourlyPrecipIn,Conditions,Clouds,dailyrainin,SoftwareType,DateUTC
2013-05-12 00:03:00,55.9,50.6,26.99,WNW,298,1.8,5.4,83,0.00,,,0.00,WSDL version 420,2013-05-12 04:03:00,
2013-05-12 00:08:00,55.7,50.4,26.99,NNW,330,1.7,5.6,81,0.00,,,0.00,WSDL version 420,2013-05-12 04:08:00,
2013-05-12 00:13:00,55.7,49.6,27.02,NW,323,1.8,5.6,81,0.00,,,0.00,WSDL version 420,2013-05-12 04:13:00,
2013-05-12 00:18:00,55.4,49.8,27.02,West,259,1.9,5.4,81,0.00,,,0.00,WSDL version 420,2013-05-12 04:18:00,
2013-05-12 00:23:00,55.3,49.7,27.02,SW,233,2.5,8.5,81,0.00,,,0.00,WSDL version 420,2013-05-12 04:23:00,
2013-05-12 00:28:00,55.2,49.1,27.02,West,270,2.3,8.5,80,0.00,,,0.00,WSDL version 420,2013-05-12 04:28:00,
2013-05-12 00:33:00,55.0,48.9,26.99,South,185,3.0,7.4,79,0.00,,,0.00,WSDL version 420,2013-05-12 04:33:00,
2013-05-12 00:38:00,54.8,48.7,26.99,WSW,256,1.2,7.4,80,0.00,,,0.00,WSDL version 420,2013-05-12 04:38:00,
2013-05-12 00:43:00,54.7,48.6,26.99,South,185,2.6,5.8,80,0.00,,,0.00,WSDL version 420,2013-05-12 04:43:00,
2013-05-12 00:48:00,54.5,48.4,26.99,WNW,293,2.3,5.4,79,0.00,,,0.00,WSDL version 420,2013-05-12 04:48:00,
2013-05-12 00:53:00,54.5,48.1,26.99,WSW,250,1.8,5.8,79,0.00,,,0.00,WSDL version 420,2013-05-12 04:53:00,
2013-05-12 00:58:00,54.4,48.3,26.99,SW,233,2.7,7.6,79,0.00,,,0.00,WSDL version 420,2013-05-12 04:58:00,
2013-05-12 01:03:00,54.1,47.9,26.99,WNW,300,3.3,7.6,79,0.00,,,0.00,WSDL version 420,2013-05-12 05:03:00,
2013-05-12 01:08:00,54.1,47.8,26.99,NNW,345,0.6,6.0,79,0.00,,,0.00,WSDL version 420,2013-05-12 05:08:00,
2013-05-12 01:13:00,54.1,47.7,26.99,SW,235,2.9,4.7,79,0.00,,,0.00,WSDL version 420,2013-05-12 05:13:00,
2013-05-12 01:18:00,54.0,47.4,26.99,SW,215,3.2,6.3,78,0.00,,,0.00,WSDL version 420,2013-05-12 05:18:00,
2013-05-12 01:23:00,54.0,47.1,26.99,WSW,241,2.4,6.3,78,0.00,,,0.00,WSDL version 420,2013-05-12 05:23:00,
2013-05-12 01:28:00,53.9,47.1,26.99,WSW,240,1.7,6.0,78,0.00,,,0.00,WSDL version 420,2013-05-12 05:28:00,
2013-05-12 01:33:00,53.8,46.7,26.99,WNW,284,2.9,6.3,77,0.00,,,0.00,WSDL version 420,2013-05-12 05:33:00,
2013-05-12 01:38:00,53.7,46.7,26.99,West,260,1.3,6.3,77,0.00,,,0.00,WSDL version 420,2013-05-12 05:38:00,
2013-05-12 01:43:00,53.5,46.6,26.99,SW,236,4.8,7.8,77,0.00,,,0.00,WSDL version 420,2013-05-12 05:43:00,
2013-05-12 01:48:00,53.4,46.1,26.99,West,259,2.3,8.5,76,0.00,,,0.00,WSDL version 420,2013-05-12 05:48:00,
2013-05-12 01:53:00,53.2,45.3,26.99,WSW,240,5.7,14.5,74,0.00,,,0.00,WSDL version 420,2013-05-12 05:53:00,
2013-05-12 01:58:00,53.1,45.0,26.99,SW,228,2.3,14.5,74,0.00,,,0.00,WSDL version 420,2013-05-12 05:58:00,
2013-05-12 02:03:00,52.9,44.8,26.99,WSW,253,1.6,7.6,74,0.00,,,0.00,WSDL version 420,2013-05-12 06:03:00,
2013-05-12 02:08:00,52.7,44.5,26.99,SSE,151,3.8,8.1,73,0.00,,,0.00,WSDL version 420,2013-05-12 06:08:00,
2013-05-12 02:13:00,52.6,44.3,26.99,NNE,20,4.6,8.7,73,0.00,,,0.00,WSDL version 420,2013-05-12 06:13:00,
2013-05-12 02:18:00,52.5,44.1,26.99,SW,222,3.1,8.7,73,0.00,,,0.00,WSDL version 420,2013-05-12 06:18:00,
2013-05-12 02:23:00,52.3,44.2,26.99,East,82,0.0,10.1,74,0.00,,,0.00,WSDL version 420,2013-05-12 06:23:00,
2013-05-12 02:28:00,52.1,43.9,26.99,WNW,290,1.3,10.1,73,0.00,,,0.00,WSDL version 420,2013-05-12 06:28:00,
2013-05-12 02:33:00,52.0,43.6,26.99,SW,214,1.7,4.9,73,0.00,,,0.00,WSDL version 420,2013-05-12 06:33:00,
2013-05-12 02:38:00,51.9,43.5,26.99,South,185,2.1,4.9,73,0.00,,,0.00,WSDL version 420,2013-05-12 06:38:00,
2013-05-12 02:43:00,51.6,43.3,26.99,NW,318,0.0,4.7,73,0.00,,,0.00,WSDL version 420,2013-05-12 06:43:00,
2013-05-12 02:48:00,51.5,43.1,26.99,SSW,208,2.0,6.7,72,0.00,,,0.00,WSDL version 420,2013-05-12 06:48:00,
2013-05-12 02:53:00,51.4,43.1,26.99,West,267,2.4,8.7,73,0.00,,,0.00,WSDL version 420,2013-05-12 06:53:00,
2013-05-12 02:58:00,51.2,42.7,26.96,West,260,1.0,8.7,72,0.00,,,0.00,WSDL version 420,2013-05-12 06:58:00,
2013-05-12 03:03:00,51.1,42.7,26.96,West,276,2.1,7.2,73,0.00,,,0.00,WSDL version 420,2013-05-12 07:03:00,
2013-05-12 03:08:00,50.9,42.6,26.96,NNE,17,0.2,4.9,74,0.00,,,0.00,WSDL version 420,2013-05-12 07:08:00,
2013-05-12 03:13:00,50.6,42.6,26.99,SSW,200,3.3,5.4,74,0.00,,,0.00,WSDL version 420,2013-05-12 07:13:00,
2013-05-12 03:18:00,50.4,42.6,26.99,West,273,1.5,5.4,75,0.00,,,0.00,WSDL version 420,2013-05-12 07:18:00,
2013-05-12 03:23:00,50.3,42.7,26.99,West,278,1.3,4.0,75,0.00,,,0.00,WSDL version 420,2013-05-12 07:23:00,
2013-05-12 03:28:00,50.1,42.9,26.99,SW,228,2.5,4.0,77,0.00,,,0.00,WSDL version 420,2013-05-12 07:28:00,
2013-05-12 03:33:00,50.0,42.7,26.99,SSW,213,1.2,4.7,76,0.00,,,0.00,WSDL version 420,2013-05-12 07:33:00,
2013-05-12 03:38:00,50.0,42.6,26.99,WNW,301,0.0,4.7,75,0.00,,,0.00,WSDL version 420,2013-05-12 07:38:00,
2013-05-12 03:43:00,49.9,42.6,26.99,WNW,284,1.2,4.9,77,0.00,,,0.00,WSDL version 420,2013-05-12 07:43:00,
2013-05-12 03:48:00,49.6,42.7,26.99,West,259,1.8,4.9,77,0.00,,,0.00,WSDL version 420,2013-05-12 07:48:00,
2013-05-12 03:53:00,49.5,42.8,26.99,WNW,284,1.9,3.8,78,0.00,,,0.00,WSDL version 420,2013-05-12 07:53:00,
2013-05-12 03:58:00,49.4,43.1,26.99,West,270,1.8,3.4,79,0.00,,,0.00,WSDL version 420,2013-05-12 07:58:00,
2013-05-12 04:03:00,49.3,43.2,26.99,WSW,248,2.4,3.8,79,0.00,,,0.00,WSDL version 420,2013-05-12 08:03:00,
2013-05-12 04:08:00,49.3,43.1,26.99,WSW,256,1.2,3.8,79,0.00,,,0.00,WSDL version 420,2013-05-12 08:08:00,
2013-05-12 04:13:00,49.3,43.2,26.99,SW,220,1.0,3.8,79,0.00,,,0.00,WSDL version 420,2013-05-12 08:13:00,
2013-05-12 04:18:00,49.1,42.9,26.99,WSW,250,2.5,4.9,79,0.00,,,0.00,WSDL version 420,2013-05-12 08:18:00,
2013-05-12 04:23:00,49.0,42.8,26.99,WSW,250,2.4,4.9,79,0.00,,,0.00,WSDL version 420,2013-05-12 08:23:00,
2013-05-12 04:28:00,48.9,42.8,26.99,WSW,253,2.5,8.1,79,0.00,,,0.00,WSDL version 420,2013-05-12 08:28:00,
2013-05-12 04:33:00,49.0,42.8,26.99,West,267,0.8,8.1,79,0.00,,,0.00,WSDL version 420,2013-05-12 08:33:00,
2013-05-12 04:38:00,49.0,42.8,26.99,WSW,243,1.3,7.4,80,0.00,,,0.00,WSDL version 420,2013-05-12 08:38:00,
2013-05-12 04:43:00,48.9,42.8,26.99,SSW,203,1.6,4.7,79,0.00,,,0.00,WSDL version 420,2013-05-12 08:43:00,
2013-05-12 04:48:00,48.8,42.6,26.99,West,268,1.8,4.7,79,0.00,,,0.00,WSDL version 420,2013-05-12 08:48:00,
2013-05-12 04:53:00,48.8,42.8,26.99,WSW,245,3.6,7.4,79,0.00,,,0.00,WSDL version 420,2013-05-12 08:53:00,
2013-05-12 04:58:00,49.0,42.5,26.99,SSW,208,1.4,7.4,78,0.00,,,0.00,WSDL version 420,2013-05-12 08:58:00,
2013-05-12 05:03:00,49.1,42.9,26.99,WSW,253,2.1,5.8,79,0.00,,,0.00,WSDL version 420,2013-05-12 09:03:00,
2013-05-12 05:08:00,49.2,43.0,26.99,West,260,2.4,9.8,79,0.00,,,0.00,WSDL version 420,2013-05-12 09:08:00,
2013-05-12 05:13:00,49.3,43.1,26.99,WNW,293,2.2,9.8,79,0.00,,,0.00,WSDL version 420,2013-05-12 09:13:00,
2013-05-12 05:18:00,49.3,43.1,26.99,West,262,2.0,4.9,80,0.00,,,0.00,WSDL version 420,2013-05-12 09:18:00,
2013-05-12 05:23:00,49.2,43.0,26.99,SW,233,3.2,6.3,79,0.00,,,0.00,WSDL version 420,2013-05-12 09:23:00,
2013-05-12 05:28:00,49.3,42.9,26.99,WNW,283,1.2,6.3,78,0.00,,,0.00,WSDL version 420,2013-05-12 09:28:00,
2013-05-12 05:33:00,49.3,42.7,26.99,ESE,110,2.6,6.0,78,0.00,,,0.00,WSDL version 420,2013-05-12 09:33:00,
2013-05-12 05:38:00,49.2,42.3,26.99,SW,234,2.3,6.0,78,0.00,,,0.00,WSDL version 420,2013-05-12 09:38:00,
2013-05-12 05:43:00,49.1,42.5,26.99,WNW,298,1.9,4.9,78,0.00,,,0.00,WSDL version 420,2013-05-12 09:43:00,
2013-05-12 05:48:00,49.2,42.5,26.99,SE,130,2.1,4.0,78,0.00,,,0.00,WSDL version 420,2013-05-12 09:48:00,
2013-05-12 05:53:00,49.2,42.5,26.99,WNW,284,1.9,3.8,77,0.00,,,0.00,WSDL version 420,2013-05-12 09:53:00,
2013-05-12 05:58:00,49.3,42.4,26.99,East,95,0.9,4.0,77,0.00,,,0.00,WSDL version 420,2013-05-12 09:58:00,
2013-05-12 06:03:00,49.5,42.9,26.99,SW,228,0.6,4.0,79,0.00,,,0.00,WSDL version 420,2013-05-12 10:03:00,
2013-05-12 06:08:00,49.6,43.1,26.99,SSE,153,3.5,7.6,78,0.00,,,0.00,WSDL version 420,2013-05-12 10:08:00,
2013-05-12 06:13:00,49.6,42.6,26.99,NE,45,1.7,7.6,76,0.00,,,0.00,WSDL version 420,2013-05-12 10:13:00,
2013-05-12 06:18:00,49.8,42.6,26.99,SSW,200,2.4,7.6,76,0.00,,,0.00,WSDL version 420,2013-05-12 10:18:00,
2013-05-12 06:23:00,49.9,42.7,26.99,SW,214,2.5,5.4,76,0.00,,,0.00,WSDL version 420,2013-05-12 10:23:00,
2013-05-12 06:28:00,50.0,43.1,26.99,WSW,242,4.2,6.3,77,0.00,,,0.00,WSDL version 420,2013-05-12 10:28:00,
2013-05-12 06:33:00,50.0,43.5,26.99,SSE,165,2.3,6.3,78,0.00,,,0.00,WSDL version 420,2013-05-12 10:33:00,
2013-05-12 06:38:00,50.2,43.6,26.99,South,177,1.7,6.7,78,0.00,,,0.00,WSDL version 420,2013-05-12 10:38:00,
2013-05-12 06:43:00,-999.0,-99.9,26.99,ENE,71,0.7,6.7,-999,0.00,,,0.00,WSDL version 420,2013-05-12 10:43:00,
2013-05-12 06:48:00,50.4,43.8,26.99,SW,214,1.4,6.3,78,0.00,,,0.00,WSDL version 420,2013-05-12 10:48:00,
2013-05-12 06:53:00,50.4,43.8,26.99,WNW,285,2.2,6.0,78,0.00,,,0.00,WSDL version 420,2013-05-12 10:53:00,
2013-05-12 06:58:00,50.4,43.8,26.99,NE,39,2.2,5.4,78,0.00,,,0.00,WSDL version 420,2013-05-12 10:58:00,
2013-05-12 07:03:00,50.4,43.6,26.99,SW,228,1.0,5.4,77,0.00,,,0.00,WSDL version 420,2013-05-12 11:03:00,
2013-05-12 07:08:00,50.4,43.1,26.99,West,270,2.5,5.6,76,0.00,,,0.00,WSDL version 420,2013-05-12 11:08:00,
2013-05-12 07:13:00,50.5,43.3,26.99,NW,312,2.4,5.6,76,0.00,,,0.00,WSDL version 420,2013-05-12 11:13:00,
2013-05-12 07:18:00,50.8,43.2,26.99,SSE,149,1.0,5.6,75,0.00,,,0.00,WSDL version 420,2013-05-12 11:18:00,
2013-05-12 07:23:00,51.0,43.1,26.99,SW,233,4.0,7.4,74,0.00,,,0.00,WSDL version 420,2013-05-12 11:23:00,
2013-05-12 07:28:00,50.9,42.6,26.99,WSW,245,2.4,7.4,73,0.00,,,0.00,WSDL version 420,2013-05-12 11:28:00,
2013-05-12 07:33:00,51.1,42.3,26.99,SW,231,2.3,6.0,72,0.00,,,0.00,WSDL version 420,2013-05-12 11:33:00,
2013-05-12 07:38:00,-999.0,-99.9,26.99,NNE,25,2.2,6.5,-999,0.00,,,0.00,WSDL version 420,2013-05-12 11:38:00,
2013-05-12 07:43:00,-999.0,-99.9,26.99,ESE,118,2.1,6.5,-999,0.00,,,0.00,WSDL version 420,2013-05-12 11:43:00,
2013-05-12 07:48:00,-999.0,-99.9,27.02,SW,217,3.0,5.8,-999,0.00,,,0.00,WSDL version 420,2013-05-12 11:48:00,
2013-05-12 07:53:00,-999.0,-99.9,27.02,SSW,193,3.6,5.8,-999,0.00,,,0.00,WSDL version 420,2013-05-12 11:53:00,
2013-05-12 07:58:00,-999.0,-99.9,27.02,SW,233,2.4,6.5,-999,0.00,,,0.00,WSDL version 420,2013-05-12 11:58:00,
2013-05-12 08:03:00,-999.0,-99.9,27.02,WSW,242,2.4,6.5,-999,0.00,,,0.00,WSDL version 420,2013-05-12 12:03:00,
2013-05-12 08:08:00,-999.0,-99.9,27.02,ENE,60,2.3,5.4,-999,0.00,,,0.00,WSDL version 420,2013-05-12 12:08:00,
2013-05-12 08:13:00,-999.0,-99.9,27.02,North,349,2.5,5.4,-999,0.00,,,0.00,WSDL version 420,2013-05-12 12:13:00,
2013-05-12 08:18:00,-999.0,-99.9,27.02,SE,140,1.9,7.6,-999,0.00,,,0.00,WSDL version 420,2013-05-12 12:18:00,
2013-05-12 08:23:00,-999.0,-99.9,27.02,ESE,118,2.9,7.6,-999,0.00,,,0.00,WSDL version 420,2013-05-12 12:23:00,
2013-05-12 08:28:00,-999.0,-99.9,27.02,SW,225,3.7,7.6,-999,0.00,,,0.00,WSDL version 420,2013-05-12 12:28:00,
2013-05-12 08:33:00,-999.0,-99.9,27.02,East,90,0.8,7.8,-999,0.00,,,0.00,WSDL version 420,2013-05-12 12:33:00,
2013-05-12 08:38:00,-999.0,-99.9,27.02,SW,215,2.8,7.8,-999,0.00,,,0.00,WSDL version 420,2013-05-12 12:38:00,
2013-05-12 08:43:00,-999.0,-99.9,27.02,SSW,198,3.7,7.2,-999,0.00,,,0.00,WSDL version 420,2013-05-12 12:43:00,
2013-05-12 08:48:00,-999.0,-99.9,27.02,South,171,2.0,7.2,-999,0.00,,,0.00,WSDL version 420,2013-05-12 12:48:00,
2013-05-12 08:53:00,-999.0,-99.9,27.02,SSE,165,3.5,6.0,-999,0.00,,,0.00,WSDL version 420,2013-05-12 12:53:00,
2013-05-12 08:58:00,-999.0,-99.9,27.02,East,98,2.1,6.0,-999,0.00,,,0.00,WSDL version 420,2013-05-12 12:58:00,
2013-05-12 09:03:00,-999.0,-99.9,27.02,NNE,23,1.9,5.4,-999,0.00,,,0.00,WSDL version 420,2013-05-12 13:03:00,
2013-05-12 09:08:00,-999.0,-99.9,27.02,ENE,59,3.7,8.1,-999,0.00,,,0.00,WSDL version 420,2013-05-12 13:08:00,
2013-05-12 09:13:00,-999.0,-99.9,27.05,SW,235,3.6,8.1,-999,0.00,,,0.00,WSDL version 420,2013-05-12 13:13:00,
2013-05-12 09:18:00,-999.0,-99.9,27.05,West,259,4.4,10.5,-999,0.00,,,0.00,WSDL version 420,2013-05-12 13:18:00,
2013-05-12 09:23:00,-999.0,-99.9,27.05,NE,48,5.9,13.0,-999,0.00,,,0.00,WSDL version 420,2013-05-12 13:23:00,
2013-05-12 09:28:00,-999.0,-99.9,27.05,SSE,168,2.5,13.0,-999,0.00,,,0.00,WSDL version 420,2013-05-12 13:28:00,
2013-05-12 09:33:00,-999.0,-99.9,27.02,South,180,2.3,6.3,-999,0.00,,,0.00,WSDL version 420,2013-05-12 13:33:00,
2013-05-12 09:38:00,-999.0,-99.9,27.02,SE,130,2.4,4.7,-999,0.00,,,0.00,WSDL version 420,2013-05-12 13:38:00,
2013-05-12 09:43:00,61.0,38.0,27.02,SE,139,3.7,10.7,41,0.00,,,0.00,WSDL version 420,2013-05-12 13:43:00,
2013-05-12 09:48:00,-999.0,-99.9,27.02,NE,53,1.9,10.7,-999,0.00,,,0.00,WSDL version 420,2013-05-12 13:48:00,
2013-05-12 09:53:00,-999.0,-99.9,27.02,West,270,2.7,6.3,-999,0.00,,,0.00,WSDL version 420,2013-05-12 13:53:00,
2013-05-12 09:58:00,-999.0,-99.9,27.02,West,259,2.4,6.3,-999,0.00,,,0.00,WSDL version 420,2013-05-12 13:58:00,
2013-05-12 10:03:00,-999.0,-99.9,27.02,SE,141,1.8,7.6,-999,0.00,,,0.00,WSDL version 420,2013-05-12 14:03:00,
2013-05-12 10:08:00,-999.0,-99.9,27.02,SE,138,2.0,7.6,-999,0.00,,,0.00,WSDL version 420,2013-05-12 14:08:00,
2013-05-12 10:13:00,60.4,37.9,27.02,SE,138,2.3,5.8,43,0.00,,,0.00,WSDL version 420,2013-05-12 14:13:00,
2013-05-12 10:18:00,-999.0,-99.9,27.02,South,183,2.9,7.2,-999,0.00,,,0.00,WSDL version 420,2013-05-12 14:18:00,
2013-05-12 10:23:00,-999.0,-99.9,27.02,South,175,3.3,7.8,-999,0.00,,,0.00,WSDL version 420,2013-05-12 14:23:00,
2013-05-12 10:28:00,-999.0,-99.9,27.02,WSW,242,3.0,7.8,-999,0.00,,,0.00,WSDL version 420,2013-05-12 14:28:00,
2013-05-12 10:33:00,60.8,38.2,27.02,West,262,2.7,7.4,43,0.00,,,0.00,WSDL version 420,2013-05-12 14:33:00,
2013-05-12 10:38:00,59.8,36.4,27.02,SSW,209,3.7,6.9,43,0.00,,,0.00,WSDL version 420,2013-05-12 14:38:00,
2013-05-12 10:43:00,60.0,36.4,27.02,NW,321,2.5,7.2,43,0.00,,,0.00,WSDL version 420,2013-05-12 14:43:00,
2013-05-12 10:48:00,59.9,35.3,27.02,ESE,108,3.9,7.8,39,0.00,,,0.00,WSDL version 420,2013-05-12 14:48:00,
2013-05-12 10:53:00,61.5,38.2,27.02,South,186,2.1,7.8,42,0.00,,,0.00,WSDL version 420,2013-05-12 14:53:00,
2013-05-12 10:58:00,62.8,36.8,27.05,South,191,4.8,7.6,38,0.00,,,0.00,WSDL version 420,2013-05-12 14:58:00,
2013-05-12 11:03:00,-999.0,-99.9,27.05,SSW,195,5.4,7.8,-999,0.00,,,0.00,WSDL version 420,2013-05-12 15:03:00,
2013-05-12 11:08:00,-999.0,-99.9,27.05,SSE,166,2.3,7.8,-999,0.00,,,0.00,WSDL version 420,2013-05-12 15:08:00,
2013-05-12 11:13:00,64.2,36.7,27.05,WSW,248,2.3,9.6,36,0.00,,,0.00,WSDL version 420,2013-05-12 15:13:00,
2013-05-12 11:18:00,-999.0,-99.9,27.02,South,180,3.9,9.6,-999,0.00,,,0.00,WSDL version 420,2013-05-12 15:18:00,
2013-05-12 11:23:00,-999.0,-99.9,27.02,WSW,248,3.7,9.6,-999,0.00,,,0.00,WSDL version 420,2013-05-12 15:23:00,
2013-05-12 11:28:00,-999.0,-99.9,27.02,SW,222,4.1,9.6,-999,0.00,,,0.00,WSDL version 420,2013-05-12 15:28:00,
2013-05-12 11:33:00,-999.0,-99.9,27.02,SSE,152,2.3,8.7,-999,0.00,,,0.00,WSDL version 420,2013-05-12 15:33:00,
2013-05-12 11:38:00,-999.0,-99.9,27.02,South,178,2.2,6.5,-999,0.00,,,0.00,WSDL version 420,2013-05-12 15:38:00,
2013-05-12 11:43:00,-999.0,-99.9,27.02,South,191,2.2,6.5,-999,0.00,,,0.00,WSDL version 420,2013-05-12 15:43:00,
2013-05-12 11:48:00,65.5,34.9,27.02,WSW,255,4.2,7.4,33,0.00,,,0.00,WSDL version 420,2013-05-12 15:48:00,
2013-05-12 11:53:00,65.3,34.7,27.02,WNW,283,3.4,8.5,33,0.00,,,0.00,WSDL version 420,2013-05-12 15:53:00,
2013-05-12 11:58:00,65.7,35.9,27.02,NNE,30,3.4,8.5,34,0.00,,,0.00,WSDL version 420,2013-05-12 15:58:00,
2013-05-12 12:03:00,-999.0,-99.9,27.05,North,357,1.0,6.5,-999,0.00,,,0.00,WSDL version 420,2013-05-12 16:03:00,
2013-05-12 12:08:00,-999.0,-99.9,27.05,ENE,73,2.1,7.8,-999,0.00,,,0.00,WSDL version 420,2013-05-12 16:08:00,
2013-05-12 12:13:00,-999.0,-99.9,27.05,SSE,166,4.1,7.8,-999,0.00,,,0.00,WSDL version 420,2013-05-12 16:13:00,
2013-05-12 12:18:00,-999.0,-99.9,27.05,SW,228,3.1,6.3,-999,0.00,,,0.00,WSDL version 420,2013-05-12 16:18:00,
2013-05-12 12:23:00,66.5,31.0,27.05,SW,225,5.3,8.7,26,0.00,,,0.00,WSDL version 420,2013-05-12 16:23:00,
2013-05-12 12:28:00,-999.0,-99.9,27.05,SSE,160,2.8,8.7,-999,0.00,,,0.00,WSDL version 420,2013-05-12 16:28:00,
2013-05-12 12:33:00,64.9,29.6,27.05,South,190,5.1,9.8,28,0.00,,,0.00,WSDL version 420,2013-05-12 16:33:00,
2013-05-12 12:38:00,65.8,33.6,27.05,ESE,118,2.5,9.8,30,0.00,,,0.00,WSDL version 420,2013-05-12 16:38:00,
2013-05-12 12:43:00,-999.0,-99.9,27.05,ESE,123,3.5,6.5,-999,0.00,,,0.00,WSDL version 420,2013-05-12 16:43:00,
2013-05-12 12:48:00,-999.0,-99.9,27.05,West,263,3.0,6.5,-999,0.00,,,0.00,WSDL version 420,2013-05-12 16:48:00,
2013-05-12 12:53:00,-999.0,-99.9,27.05,SW,222,2.9,9.4,-999,0.00,,,0.00,WSDL version 420,2013-05-12 16:53:00,
2013-05-12 12:58:00,-999.0,-99.9,27.05,SSE,149,3.7,9.4,-999,0.00,,,0.00,WSDL version 420,2013-05-12 16:58:00,
2013-05-12 13:03:00,-999.0,-99.9,27.05,North,357,3.2,8.5,-999,0.00,,,0.00,WSDL version 420,2013-05-12 17:03:00,
2013-05-12 13:08:00,66.6,31.6,27.05,SSE,165,4.6,11.9,27,0.00,,,0.00,WSDL version 420,2013-05-12 17:08:00,
2013-05-12 13:13:00,-999.0,-99.9,27.05,ENE,58,2.5,11.9,-999,0.00,,,0.00,WSDL version 420,2013-05-12 17:13:00,
2013-05-12 13:18:00,-999.0,-99.9,27.05,SSW,200,2.9,8.5,-999,0.00,,,0.00,WSDL version 420,2013-05-12 17:18:00,
2013-05-12 13:23:00,-999.0,-99.9,27.05,ESE,115,3.4,8.5,-999,0.00,,,0.00,WSDL version 420,2013-05-12 17:23:00,
2013-05-12 13:28:00,-999.0,-99.9,27.05,SSE,166,2.5,6.5,-999,0.00,,,0.00,WSDL version 420,2013-05-12 17:28:00,
2013-05-12 13:33:00,-999.0,-99.9,27.05,SSE,153,3.6,7.2,-999,0.00,,,0.00,WSDL version 420,2013-05-12 17:33:00,
2013-05-12 13:38:00,-999.0,-99.9,27.05,SSW,205,2.7,11.4,-999,0.00,,,0.00,WSDL version 420,2013-05-12 17:38:00,
2013-05-12 13:43:00,-999.0,-99.9,27.05,SE,124,3.8,11.4,-999,0.00,,,0.00,WSDL version 420,2013-05-12 17:43:00,
2013-05-12 13:48:00,-999.0,-99.9,27.05,SSW,199,3.3,10.3,-999,0.00,,,0.00,WSDL version 420,2013-05-12 17:48:00,
2013-05-12 13:53:00,-999.0,-99.9,27.05,SSE,153,5.0,10.5,-999,0.00,,,0.00,WSDL version 420,2013-05-12 17:53:00,
2013-05-12 13:58:00,-999.0,-99.9,27.05,SW,228,3.8,10.5,-999,0.00,,,0.00,WSDL version 420,2013-05-12 17:58:00,
2013-05-12 14:03:00,-999.0,-99.9,27.05,SSE,163,1.5,7.8,-999,0.00,,,0.00,WSDL version 420,2013-05-12 18:03:00,
2013-05-12 14:08:00,-999.0,-99.9,27.05,NE,43,3.9,6.5,-999,0.00,,,0.00,WSDL version 420,2013-05-12 18:08:00,
2013-05-12 14:13:00,-999.0,-99.9,27.05,SW,214,2.1,6.5,-999,0.00,,,0.00,WSDL version 420,2013-05-12 18:13:00,
2013-05-12 14:18:00,-999.0,-99.9,27.05,SSW,205,3.3,6.7,-999,0.00,,,0.00,WSDL version 420,2013-05-12 18:18:00,
2013-05-12 14:23:00,-999.0,-99.9,27.05,SE,132,5.2,8.1,-999,0.00,,,0.00,WSDL version 420,2013-05-12 18:23:00,
2013-05-12 14:28:00,-999.0,-99.9,27.05,ENE,70,2.9,8.1,-999,0.00,,,0.00,WSDL version 420,2013-05-12 18:28:00,
2013-05-12 14:33:00,-999.0,-99.9,27.05,SW,228,2.1,5.8,-999,0.00,,,0.00,WSDL version 420,2013-05-12 18:33:00,
2013-05-12 14:38:00,-999.0,-99.9,27.05,East,79,1.8,4.7,-999,0.00,,,0.00,WSDL version 420,2013-05-12 18:38:00,
2013-05-12 14:43:00,-999.0,-99.9,27.05,NNE,25,3.2,6.3,-999,0.00,,,0.00,WSDL version 420,2013-05-12 18:43:00,
2013-05-12 14:48:00,-999.0,-99.9,27.05,South,188,3.7,7.6,-999,0.00,,,0.00,WSDL version 420,2013-05-12 18:48:00,
2013-05-12 14:53:00,-999.0,-99.9,27.05,SSE,158,3.1,7.6,-999,0.00,,,0.00,WSDL version 420,2013-05-12 18:53:00,
2013-05-12 14:58:00,-999.0,-99.9,27.05,SE,132,3.6,6.0,-999,0.00,,,0.00,WSDL version 420,2013-05-12 18:58:00,
2013-05-12 15:03:00,-999.0,-99.9,27.05,SSE,155,2.0,6.0,-999,0.00,,,0.00,WSDL version 420,2013-05-12 19:03:00,
2013-05-12 15:08:00,-999.0,-99.9,27.05,SSE,155,3.0,7.4,-999,0.00,,,0.00,WSDL version 420,2013-05-12 19:08:00,
2013-05-12 15:13:00,-999.0,-99.9,27.05,SE,143,2.9,7.4,-999,0.00,,,0.00,WSDL version 420,2013-05-12 19:13:00,
2013-05-12 15:18:00,-999.0,-99.9,27.05,WSW,253,1.3,6.0,-999,0.00,,,0.00,WSDL version 420,2013-05-12 19:18:00,
2013-05-12 15:23:00,-999.0,-99.9,27.05,SW,222,4.8,7.2,-999,0.00,,,0.00,WSDL version 420,2013-05-12 19:23:00,
2013-05-12 15:28:00,-999.0,-99.9,27.05,North,352,1.9,7.2,-999,0.00,,,0.00,WSDL version 420,2013-05-12 19:28:00,
2013-05-12 15:33:00,-999.0,-99.9,27.05,SE,127,2.3,4.0,-999,0.00,,,0.00,WSDL version 420,2013-05-12 19:33:00,
2013-05-12 15:38:00,-999.0,-99.9,27.05,SE,140,2.8,4.3,-999,0.00,,,0.00,WSDL version 420,2013-05-12 19:38:00,
2013-05-12 15:43:00,-999.0,-99.9,27.05,East,100,3.2,5.6,-999,0.00,,,0.00,WSDL version 420,2013-05-12 19:43:00,
2013-05-12 15:48:00,-999.0,-99.9,27.05,South,172,3.8,9.6,-999,0.00,,,0.00,WSDL version 420,2013-05-12 19:48:00,
2013-05-12 15:53:00,-999.0,-99.9,27.05,ESE,123,3.8,9.6,-999,0.00,,,0.00,WSDL version 420,2013-05-12 19:53:00,
2013-05-12 15:58:00,-999.0,-99.9,27.05,South,177,3.1,6.3,-999,0.00,,,0.00,WSDL version 420,2013-05-12 19:58:00,
2013-05-12 16:03:00,-999.0,-99.9,27.05,South,170,3.6,6.3,-999,0.00,,,0.00,WSDL version 420,2013-05-12 20:03:00,
2013-05-12 16:08:00,-999.0,-99.9,27.05,WSW,239,3.0,8.1,-999,0.00,,,0.00,WSDL version 420,2013-05-12 20:08:00,
2013-05-12 16:13:00,-999.0,-99.9,27.05,South,180,2.2,8.1,-999,0.00,,,0.00,WSDL version 420,2013-05-12 20:13:00,
2013-05-12 16:18:00,-999.0,-99.9,27.05,SSE,148,1.3,5.6,-999,0.00,,,0.00,WSDL version 420,2013-05-12 20:18:00,
2013-05-12 16:23:00,-999.0,-99.9,27.05,WSW,239,2.5,3.8,-999,0.00,,,0.00,WSDL version 420,2013-05-12 20:23:00,
2013-05-12 16:28:00,-999.0,-99.9,27.05,SE,130,4.3,5.8,-999,0.00,,,0.00,WSDL version 420,2013-05-12 20:28:00,
2013-05-12 16:33:00,-999.0,-99.9,27.05,SE,135,2.9,5.8,-999,0.00,,,0.00,WSDL version 420,2013-05-12 20:33:00,
2013-05-12 16:38:00,66.7,28.8,27.05,SE,145,3.8,6.0,24,0.00,,,0.00,WSDL version 420,2013-05-12 20:38:00,
2013-05-12 16:43:00,66.5,29.3,27.05,SSW,193,2.4,6.0,25,0.00,,,0.00,WSDL version 420,2013-05-12 20:43:00,
2013-05-12 16:48:00,-999.0,-99.9,27.05,ESE,118,2.9,5.4,-999,0.00,,,0.00,WSDL version 420,2013-05-12 20:48:00,
2013-05-12 16:53:00,-999.0,-99.9,27.05,SE,140,3.8,6.0,-999,0.00,,,0.00,WSDL version 420,2013-05-12 20:53:00,
2013-05-12 16:58:00,-999.0,-99.9,27.05,ENE,68,2.7,6.0,-999,0.00,,,0.00,WSDL version 420,2013-05-12 20:58:00,
2013-05-12 17:03:00,66.0,28.2,27.05,ESE,105,3.0,7.2,24,0.00,,,0.00,WSDL version 420,2013-05-12 21:03:00,
2013-05-12 17:08:00,65.6,28.3,27.05,NNE,23,1.9,7.2,25,0.00,,,0.00,WSDL version 420,2013-05-12 21:08:00,
2013-05-12 17:13:00,65.1,28.5,27.05,ESE,105,3.0,5.6,25,0.00,,,0.00,WSDL version 420,2013-05-12 21:13:00,
2013-05-12 17:18:00,63.9,26.4,27.05,ESE,106,4.2,6.3,24,0.00,,,0.00,WSDL version 420,2013-05-12 21:18:00,
2013-05-12 17:23:00,-999.0,-99.9,27.05,South,173,2.8,6.3,-999,0.00,,,0.00,WSDL version 420,2013-05-12 21:23:00,
2013-05-12 17:28:00,63.2,26.8,27.05,SE,127,2.1,5.8,25,0.00,,,0.00,WSDL version 420,2013-05-12 21:28:00,
2013-05-12 17:33:00,-999.0,-99.9,27.05,SE,141,1.8,6.3,-999,0.00,,,0.00,WSDL version 420,2013-05-12 21:33:00,
2013-05-12 17:38:00,62.6,26.3,27.05,SSE,168,3.8,7.4,25,0.00,,,0.00,WSDL version 420,2013-05-12 21:38:00,
2013-05-12 17:43:00,-999.0,-99.9,27.05,WSW,245,2.3,7.8,-999,0.00,,,0.00,WSDL version 420,2013-05-12 21:43:00,
2013-05-12 17:48:00,-999.0,-99.9,27.05,WNW,303,2.3,9.4,-999,0.00,,,0.00,WSDL version 420,2013-05-12 21:48:00,
2013-05-12 17:53:00,-999.0,-99.9,27.05,SE,135,4.3,9.4,-999,0.00,,,0.00,WSDL version 420,2013-05-12 21:53:00,
2013-05-12 17:58:00,-999.0,-99.9,27.05,West,265,2.2,8.7,-999,0.00,,,0.00,WSDL version 420,2013-05-12 21:58:00,
2013-05-12 18:03:00,-999.0,-99.9,27.05,WSW,248,1.5,8.7,-999,0.00,,,0.00,WSDL version 420,2013-05-12 22:03:00,
2013-05-12 18:08:00,-999.0,-99.9,27.05,East,80,2.2,5.4,-999,0.00,,,0.00,WSDL version 420,2013-05-12 22:08:00,
2013-05-12 18:13:00,-999.0,-99.9,27.05,SE,124,3.2,6.5,-999,0.00,,,0.00,WSDL version 420,2013-05-12 22:13:00,
2013-05-12 18:18:00,-999.0,-99.9,27.05,East,87,0.7,6.5,-999,0.00,,,0.00,WSDL version 420,2013-05-12 22:18:00,
2013-05-12 18:23:00,-999.0,-99.9,27.05,South,174,0.4,3.6,-999,0.00,,,0.00,WSDL version 420,2013-05-12 22:23:00,
2013-05-12 18:28:00,-999.0,-99.9,27.05,ENE,70,1.8,3.8,-999,0.00,,,0.00,WSDL version 420,2013-05-12 22:28:00,
2013-05-12 18:33:00,-999.0,-99.9,27.05,East,93,0.9,3.8,-999,0.00,,,0.00,WSDL version 420,2013-05-12 22:33:00,
2013-05-12 18:38:00,56.3,24.5,27.05,SSW,210,1.0,3.8,29,0.00,,,0.00,WSDL version 420,2013-05-12 22:38:00,
2013-05-12 18:43:00,-999.0,-99.9,27.08,SW,217,0.3,3.8,-999,0.00,,,0.00,WSDL version 420,2013-05-12 22:43:00,
2013-05-12 18:48:00,-999.0,-99.9,27.08,ESE,113,2.2,3.6,-999,0.00,,,0.00,WSDL version 420,2013-05-12 22:48:00,
2013-05-12 18:53:00,-999.0,-99.9,27.08,SE,127,2.7,4.0,-999,0.00,,,0.00,WSDL version 420,2013-05-12 22:53:00,
2013-05-12 18:58:00,-999.0,-99.9,27.08,WSW,254,3.0,5.6,-999,0.00,,,0.00,WSDL version 420,2013-05-12 22:58:00,
2013-05-12 19:03:00,-999.0,-99.9,27.05,East,96,0.1,6.0,-999,0.00,,,0.00,WSDL version 420,2013-05-12 23:03:00,
2013-05-12 19:08:00,-999.0,-99.9,27.05,ESE,115,0.1,6.0,-999,0.00,,,0.00,WSDL version 420,2013-05-12 23:08:00,
2013-05-12 19:13:00,-999.0,-99.9,27.05,ESE,115,2.6,4.3,-999,0.00,,,0.00,WSDL version 420,2013-05-12 23:13:00,
2013-05-12 19:18:00,53.8,27.5,27.08,North,349,1.8,4.9,36,0.00,,,0.00,WSDL version 420,2013-05-12 23:18:00,
2013-05-12 19:23:00,53.6,27.5,27.08,ENE,65,1.0,4.9,37,0.00,,,0.00,WSDL version 420,2013-05-12 23:23:00,
2013-05-12 19:28:00,53.3,27.2,27.08,SW,214,0.9,4.3,36,0.00,,,0.00,WSDL version 420,2013-05-12 23:28:00,
2013-05-12 19:33:00,53.1,27.1,27.08,NNW,333,2.0,4.3,36,0.00,,,0.00,WSDL version 420,2013-05-12 23:33:00,
2013-05-12 19:38:00,52.9,26.7,27.08,SSW,197,1.4,4.9,36,0.00,,,0.00,WSDL version 420,2013-05-12 23:38:00,
2013-05-12 19:43:00,52.7,26.8,27.08,WSW,256,1.6,4.9,37,0.00,,,0.00,WSDL version 420,2013-05-12 23:43:00,
2013-05-12 19:48:00,52.5,27.2,27.08,WSW,248,0.8,6.0,37,0.00,,,0.00,WSDL version 420,2013-05-12 23:48:00,
2013-05-12 19:53:00,52.4,26.9,27.08,SE,135,2.0,6.0,37,0.00,,,0.00,WSDL version 420,2013-05-12 23:53:00,
2013-05-12 19:58:00,52.0,26.7,27.08,SSW,200,0.0,3.8,38,0.00,,,0.00,WSDL version 420,2013-05-12 23:58:00,
2013-05-12 20:03:00,51.6,27.5,27.08,North,8,1.4,5.6,39,0.00,,,0.00,WSDL version 420,2013-05-13 00:03:00,
2013-05-12 20:08:00,51.6,27.6,27.08,West,263,1.2,5.6,39,0.00,,,0.00,WSDL version 420,2013-05-13 00:08:00,
2013-05-12 20:13:00,-999.0,-99.9,27.08,East,96,2.9,6.9,-999,0.00,,,0.00,WSDL version 420,2013-05-13 00:13:00,
2013-05-12 20:18:00,51.2,27.1,27.08,NW,307,1.3,6.9,40,0.00,,,0.00,WSDL version 420,2013-05-13 00:18:00,
2013-05-12 20:23:00,-999.0,-99.9,27.08,WSW,253,1.3,3.6,-999,0.00,,,0.00,WSDL version 420,2013-05-13 00:23:00,
2013-05-12 20:28:00,50.6,27.2,27.08,WSW,248,0.8,2.9,40,0.00,,,0.00,WSDL version 420,2013-05-13 00:28:00,
2013-05-12 20:33:00,50.4,26.6,27.08,WNW,303,0.5,2.7,40,0.00,,,0.00,WSDL version 420,2013-05-13 00:33:00,
2013-05-12 20:38:00,-999.0,-99.9,27.08,SE,124,0.4,5.6,-999,0.00,,,0.00,WSDL version 420,2013-05-13 00:38:00,
2013-05-12 20:43:00,50.2,26.8,27.08,SSW,205,0.0,5.6,40,0.00,,,0.00,WSDL version 420,2013-05-13 00:43:00,
2013-05-12 20:48:00,49.9,26.3,27.08,SE,127,0.6,2.0,40,0.00,,,0.00,WSDL version 420,2013-05-13 00:48:00,
2013-05-12 20:53:00,49.7,27.4,27.08,WNW,300,1.3,3.1,43,0.00,,,0.00,WSDL version 420,2013-05-13 00:53:00,
2013-05-12 20:58:00,49.2,26.6,27.11,West,265,1.4,3.1,42,0.00,,,0.00,WSDL version 420,2013-05-13 00:58:00,
2013-05-12 21:03:00,48.9,27.1,27.11,WNW,295,0.0,2.5,42,0.00,,,0.00,WSDL version 420,2013-05-13 01:03:00,
2013-05-12 21:08:00,48.7,27.4,27.11,WSW,255,1.4,3.4,44,0.00,,,0.00,WSDL version 420,2013-05-13 01:08:00,
2013-05-12 21:13:00,48.6,28.0,27.11,West,276,1.8,3.4,45,0.00,,,0.00,WSDL version 420,2013-05-13 01:13:00,
2013-05-12 21:18:00,48.5,28.5,27.08,West,270,2.4,3.8,46,0.00,,,0.00,WSDL version 420,2013-05-13 01:18:00,
2013-05-12 21:23:00,48.3,27.2,27.08,West,281,2.0,3.8,43,0.00,,,0.00,WSDL version 420,2013-05-13 01:23:00,
2013-05-12 21:28:00,48.2,26.8,27.11,West,265,3.2,7.4,43,0.00,,,0.00,WSDL version 420,2013-05-13 01:28:00,
2013-05-12 21:33:00,-999.0,-99.9,27.11,West,273,1.6,7.4,-999,0.00,,,0.00,WSDL version 420,2013-05-13 01:33:00,
2013-05-12 21:38:00,48.1,26.7,27.11,WNW,287,0.6,3.8,43,0.00,,,0.00,WSDL version 420,2013-05-13 01:38:00,
2013-05-12 21:43:00,-999.0,-99.9,27.11,West,265,2.7,4.3,-999,0.00,,,0.00,WSDL version 420,2013-05-13 01:43:00,
2013-05-12 21:48:00,-999.0,-99.9,27.11,West,278,2.0,4.3,-999,0.00,,,0.00,WSDL version 420,2013-05-13 01:48:00,
2013-05-12 21:53:00,48.0,28.2,27.11,WSW,242,2.5,4.3,46,0.00,,,0.00,WSDL version 420,2013-05-13 01:53:00,
2013-05-12 21:58:00,48.2,26.2,27.11,WNW,295,1.7,4.3,42,0.00,,,0.00,WSDL version 420,2013-05-13 01:58:00,
2013-05-12 22:03:00,48.2,27.9,27.11,West,260,1.8,3.8,45,0.00,,,0.00,WSDL version 420,2013-05-13 02:03:00,
2013-05-12 22:08:00,-999.0,-99.9,27.11,WSW,250,2.0,4.9,-999,0.00,,,0.00,WSDL version 420,2013-05-13 02:08:00,
2013-05-12 22:13:00,-999.0,-99.9,27.11,WNW,284,1.9,4.9,-999,0.00,,,0.00,WSDL version 420,2013-05-13 02:13:00,
2013-05-12 22:18:00,-999.0,-99.9,27.11,SW,223,2.8,5.6,-999,0.00,,,0.00,WSDL version 420,2013-05-13 02:18:00,
2013-05-12 22:23:00,-999.0,-99.9,27.11,West,267,2.3,5.6,-999,0.00,,,0.00,WSDL version 420,2013-05-13 02:23:00,
2013-05-12 22:28:00,47.9,26.7,27.11,WSW,248,1.9,6.3,42,0.00,,,0.00,WSDL version 420,2013-05-13 02:28:00,
2013-05-12 22:33:00,48.1,25.4,27.11,WSW,256,3.4,6.3,41,0.00,,,0.00,WSDL version 420,2013-05-13 02:33:00,
2013-05-12 22:38:00,48.0,25.5,27.11,WSW,250,2.1,4.9,41,0.00,,,0.00,WSDL version 420,2013-05-13 02:38:00,
2013-05-12 22:43:00,47.9,26.2,27.11,WSW,255,2.2,4.3,43,0.00,,,0.00,WSDL version 420,2013-05-13 02:43:00,
2013-05-12 22:48:00,-999.0,-99.9,27.11,SSW,208,2.4,4.3,-999,0.00,,,0.00,WSDL version 420,2013-05-13 02:48:00,
2013-05-12 22:53:00,47.7,25.7,27.11,SW,228,1.9,4.9,42,0.00,,,0.00,WSDL version 420,2013-05-13 02:53:00,
2013-05-12 22:58:00,47.7,25.9,27.11,WSW,253,2.7,4.9,43,0.00,,,0.00,WSDL version 420,2013-05-13 02:58:00,
2013-05-12 23:03:00,-999.0,-99.9,27.11,West,267,3.6,5.6,-999,0.00,,,0.00,WSDL version 420,2013-05-13 03:03:00,
2013-05-12 23:08:00,47.5,25.3,27.11,SW,233,3.5,5.6,41,0.00,,,0.00,WSDL version 420,2013-05-13 03:08:00,
2013-05-12 23:13:00,47.5,25.0,27.11,West,268,3.1,5.6,41,0.00,,,0.00,WSDL version 420,2013-05-13 03:13:00,
2013-05-12 23:18:00,47.2,25.9,27.11,West,280,2.1,5.6,43,0.00,,,0.00,WSDL version 420,2013-05-13 03:18:00,
2013-05-12 23:23:00,47.0,25.7,27.11,West,276,2.5,4.0,43,0.00,,,0.00,WSDL version 420,2013-05-13 03:23:00,
2013-05-12 23:28:00,46.8,25.5,27.11,West,278,2.7,5.6,43,0.00,,,0.00,WSDL version 420,2013-05-13 03:28:00,
2013-05-12 23:33:00,46.9,25.3,27.11,West,270,2.2,5.6,43,0.00,,,0.00,WSDL version 420,2013-05-13 03:33:00,
2013-05-12 23:38:00,46.9,25.1,27.11,West,273,4.1,5.8,41,0.00,,,0.00,WSDL version 420,2013-05-13 03:38:00,
2013-05-12 23:43:00,47.0,24.7,27.11,West,278,2.9,5.8,41,0.00,,,0.00,WSDL version 420,2013-05-13 03:43:00,
2013-05-12 23:48:00,46.9,25.3,27.11,WNW,284,2.1,5.8,43,0.00,,,0.00,WSDL version 420,2013-05-13 03:48:00,
2013-05-12 23:53:00,46.8,24.7,27.11,West,268,2.5,7.2,41,0.00,,,0.00,WSDL version 420,2013-05-13 03:53:00,
2013-05-12 23:58:00,46.9,25.2,27.11,WSW,248,2.4,7.2,43,0.00,,,0.00,WSDL version 420,2013-05-13 03:58:00,